Reflectivity
-20 -20 -20 -20 -20 -20 -20 -20 -20 -20 -20 -20 -20 -20 -20 -20 -20 -20 -20 -20 -20 -20 -20 -20 -20 -20 -20 -20 -20 -20 -20 -20 -20 -20 -20 -20 -20 -20 -20 -20 -20 -20 -20 -20 -20 -20 -20 -20 -20
-20 -20 -20 -20 -20 -20 -20 -20 -20 -20 -20 -20 -20 -20 -20 -20 -20 -20 -20 -20 -20 -20 -20 -20 -20 -20 -20 -20 -20 -20 -20 -20 -20 -20 -20 -20 -20 -20 -20 -20 -20 -20 -20 -20 -20 -20 -20 -20 -20
-20 -20 -20 -20 -20 -20 -20 -20 -20 -20 -20 -20 -20 -20 -20 -20 -20 -20 -20 -20 -20 -20 -20 -20 -20 -20 -20 -20 -20 -20 -20 -20 -20 -20 -20 -20 -20 -20 -20 -20 -20 -20 -20 -20 -20 -20 -20 -20 -20
-20 -20 -20 -20 -20 -20 -20 -20 -20 -20 -20 -20 -20 -20 -20 -20 -20 -20 -20 -20 -20 -20 -20 -9 -20 -20 -20 -20 -20 -20 -20 -20 -20 -20 -20 -20 -20 -20 -20 -20 -20 -20 -20 -20 -20 -20 -20 -20 -20
-20 -20 -20 -20 -20 -20 -20 -20 -20 -20 -20 -20 -20 -20 -20 -20 -20 -20 -20 -20 -20 -20 -20 -18 -20 -20 -20 -20 -20 -20 -20 -20 -20 -20 -20 -20 -20 -20 -20 -20 -20 -20 -20 -20 -20 -20 -20 -20 -20
-20 -20 -20 -20 -20 -20 -20 -20 -20 -20 -20 -20 -20 -20 -20 -20 -20 -20 -20 -20 -20 -20 -20 -20 -20 -20 -20 -20 -20 -20 -20 -20 -20 -20 -20 -20 -20 -20 -20 -20 -20 -20 -20 -20 -20 -20 -20 -20 -20
-20 -20 -20 -20 -20 -20 -20 -20 -20 -20 -20 -20 -20 -20 -20 -20 -20 -20 -20 -20 -20 -20 -20 -20 -20 -20 -20 -20 -20 -20 -20 -20 -20 -20 -20 -20 -20 -20 -20 -20 -20 -20 -20 -20 -20 -20 -20 -20 -20
-20 -20 -20 -20 -20 -19 -20 -20 -20 -20 -20 -20 -20 -20 -20 -20 -20 -20 -20 -20 -20 -20 -20 -20 -14 13 -19 -20 -20 -20 -20 -20 -20 -20 -20 -20 -20 -20 -20 -20 -20 -20 -20 -20 -20 -20 -20 -20 -20
-20 -20 -20 -20 -20 -20 -20 -20 -20 -20 -20 -20 -20 -20 -20 -20 -20 -20 -20 -20 -20 -20 -20 -20 -13 12 10 -20 -20 -20 -20 -20 -20 -20 -20 -20 -20 -20 -20 -20 -20 -20 -20 -20 -20 -20 -20 -20 -20
-20 -20 -20 -20 -20 -20 -20 -20 -20 -20 -20 -20 -20 -20 -20 -20 -20 -20 -20 -20 -20 -20 -20 -20 -20 -20 4 -20 -20 -20 -20 -20 -20 -20 -20 -20 -20 -20 -20 -20 -20 -20 -20 -20 -20 -20 -20 -20 -20
-20 -20 -20 -20 -20 -20 -20 -20 -20 -20 -20 -20 -20 -20 -20 -20 -20 -20 -20 -20 -20 -20 -20 -20 -20 -20 -20 -15 -1 -20 -20 -20 -20 -20 -20 -20 -20 -20 -20 -20 -20 -20 -20 -20 -20 -20 -20 -20 -20
-20 -20 -20 -20 -20 -20 -20 -20 -20 -20 -20 -20 -20 -20 -20 -20 -20 -20 -20 -20 -20 -20 -20 -20 -20 -20 -20 -20 -20 -20 -20 -20 -20 -20 -20 -20 -20 -20 -20 -20 -20 -20 -20 -20 -20 -20 -20 -20 -20
-20 -20 -20 -20 -20 -20 -20 -20 -20 -20 -20 -20 -20 -20 -20 -20 -20 -20 -20 -20 -20 -20 -20 -20 -20 -20 -20 -20 -20 -20 -20 -20 -20 -20 -20 -20 -20 -20 -20 -20 -20 -20 -20 -20 -20 -20 -20 -20 -20
-20 -20 -20 -20 -20 -20 -20 -20 -20 -20 -20 -20 -20 -20 -20 -20 -20 -20 -20 -20 -20 -13 -11 12 -20 -20 -20 -20 -20 -20 -20 -20 -20 -20 -20 -20 -20 -20 -20 -20 -20 -20 -20 -20 -20 -20 -20 -20 -20
-20 -20 -20 -20 -20 -20 -20 -20 -20 -20 -20 -20 -20 -20 -20 -20 -20 -20 -20 -20 -20 -20 -14 -11 -13 -20 -20 -20 -20 -20 -20 -20 -20 -20 -20 -20 -20 -20 -20 -20 -20 -20 -20 -20 -20 -20 -20 -20 -20
-20 -20 -20 -20 -20 -20 -20 -20 -20 -20 -20 -20 -20 -20 -20 -20 -20 -20 -20 -20 -20 -20 -20 -17 24 15 -20 -20 -20 -20 -20 -20 -20 -20 -20 -20 -20 -20 -20 -20 -20 -20 -20 -20 -20 -20 -20 -20 -20
-20 -20 -20 -20 -20 -20 -20 -20 -20 -20 -20 -20 -20 -20 -20 -20 -20 -20 -20 -20 -20 -20 -20 -19 43 17 -19 -20 -20 -20 -20 -20 -20 -20 -20 -20 -20 -20 -20 -20 -20 -20 -20 -20 -20 -20 -20 -20 -20
-20 -20 -20 -20 -20 -20 -20 -20 -20 -20 -20 -20 -20 -20 -20 -20 -20 -20 -20 -20 -11 -20 -20 -20 12 11 -20 -20 -20 -20 -20 -20 -20 -20 -20 -20 -20 -20 -20 -20 -20 -20 -20 -20 -20 -20 -20 -20 -20
-20 -20 -20 -20 -20 -20 -20 -20 -20 -20 -20 -20 -20 -20 -20 -20 -20 -20 -20 -20 -20 -13 -20 -20 -9 -20 -20 -20 -20 -20 -20 -20 -20 -20 -20 -20 -20 -20 -20 -20 -20 -20 -20 -20 -20 -20 -20 -20 -20
-20 -20 -20 -20 -20 -20 -20 -20 -20 -20 -20 -20 -20 -20 -20 -20 -20 -20 -20 -20 -20 -20 -20 -20 -20 -20 -20 -20 -20 -20 -20 -20 -20 -20 -20 -20 -20 -20 -20 -20 -20 -20 -20 -20 -20 -20 -20 -20 -20
-20 -20 -20 -20 -20 -20 -20 -20 -20 -20 -20 -20 -20 -20 -20 -20 -20 -20 -20 -20 -20 -20 -20 -20 -20 -20 -20 -20 -20 -20 -20 -20 -20 -20 -20 -20 -20 -20 -20 -20 -20 -20 -20 -20 -20 -20 -20 -20 -20
-20 -20 -20 -20 -20 -20 -20 -20 -20 -20 -20 -20 -20 -20 -20 -20 -20 -20 -20 -20 -20 -16 -20 -20 -10 -20 -20 -20 -20 -20 -20 -20 -20 -20 -20 -20 -20 -20 -20 -20 -20 -20 -20 -20 -20 -20 -20 -20 -20
-20 -7 -20 -20 -20 -20 -20 -18 -20 -20 -20 -20 -20 -20 -20 -20 -20 -20 -20 -20 -20 -20 1 -20 -20 7 36 -20 -20 -20 -20 -20 -20 -20 -20 -20 -20 -20 -20 -20 -20 -20 -20 -20 -20 -20 -20 -20 -20
-14 -20 -20 -20 -20 -20 -12 14 -20 -20 -20 -20 -20 -13 -20 -20 -20 -20 -20 -20 -20 -20 -18 -6 -20 -20 -9 33 -20 -20 -20 -20 -20 -20 -20 -20 -20 -20 -20 -20 -20 -20 -20 -20 -20 -20 -20 -20 -20
-20 -20 -20 -7 -18 3 14 -16 17 32 17 -1 -5 -20 -20 -20 -20 -20 -20 -20 -20 -20 -20 -20 -20 -20 -20 12 14 -16 -20 -20 -20 -20 -20 -20 -20 -20 -20 -20 -20 -20 -20 -20 -20 -20 -20 -20 -20
-20 -2 12 8 -3 -20 4 -20 26 30 30 23 14 0 10 -20 -20 -20 -20 -20 -20 -20 -20 -20 -20 -20 -20 -20 10 34 -19 -20 -20 -20 -20 -20 -20 -20 -20 -20 -20 -20 -20 -20 -20 -20 -20 -20 -20
-20 -20 -20 -20 -20 -20 -20 21 37 26 16 16 18 17 20 18 -15 -20 -20 -20 -20 -20 -20 -20 -20 -20 -20 -20 -13 33 -15 -20 -20 -20 -20 -20 -20 -20 -20 -20 -20 -20 -20 -20 -20 -20 -20 -20 -20
-20 -20 -10 -19 -6 -20 -20 3 14 12 -3 -17 6 -12 -15 -4 11 7 -20 -20 -20 -20 -19 -20 -20 -20 -20 -20 -6 38 32 4 -20 -20 -20 -20 -20 -20 -20 -20 -20 -20 -20 -20 -20 -20 -20 -20 -20
-20 -14 -20 -1 14 8 -8 -20 -6 -20 -20 -11 -20 -20 -20 -20 -20 -20 -20 -20 -20 -20 -18 -19 -20 -20 -20 -20 -20 15 37 34 33 15 -20 -18 -5 -20 -20 -20 -20 -20 -20 -20 -20 -20 -20 -20 -20
-3 1 1 -20 -20 -20 -13 -20 -20 -20 -20 -20 -20 -20 -20 -20 -20 -20 -20 -20 -20 -20 -20 -20 -20 -20 -20 -20 -8 34 46 30 15 31 31 7 4 -14 -17 -20 -20 -20 -20 -20 -20 -20 -20 -20 -20
Wind_Speed
10 11 2 3 5 4 4 10 6 6 5 2 5 8 3 2 6 6 7 19 24 17 16 17 22 23 22 20 19 18 17 16 15 16 17 18 17 17 17 16 17 17 18 18 17 16 15 14 13
5 7 1 3 3 1 7 5 7 4 1 4 9 7 7 5 8 12 9 15 24 18 15 15 21 22 23 22 20 19 18 17 15 15 16 17 17 16 16 15 15 16 16 17 16 14 12 11 10
8 5 2 3 3 5 4 4 3 4 8 8 7 4 6 5 9 5 17 17 18 18 12 13 20 21 23 22 20 19 19 18 15 14 15 16 16 16 15 14 14 14 14 16 14 11 9 8 9
4 5 4 2 8 12 6 9 6 6 9 8 5 5 6 6 5 13 18 18 17 16 12 15 16 21 21 23 21 20 19 18 15 14 15 15 16 16 15 12 12 13 14 14 12 8 6 7 7
2 2 2 3 8 10 10 10 4 6 3 3 3 3 5 10 14 25 21 18 18 12 13 12 14 18 21 22 22 20 19 18 17 15 14 14 15 15 14 12 11 12 13 12 10 7 5 5 7
3 1 2 4 8 10 8 8 4 4 4 4 2 1 4 5 11 16 19 19 18 14 13 12 13 16 18 20 21 21 20 18 18 17 14 14 13 14 13 13 12 12 12 10 9 7 5 4 5
4 2 5 7 12 17 10 10 8 5 6 4 1 1 1 9 5 12 16 17 18 17 13 14 13 13 13 16 18 20 20 18 18 17 15 14 13 12 13 13 13 12 11 10 9 8 5 3 2
2 2 6 5 8 17 11 9 7 3 4 5 2 1 4 2 7 10 16 16 16 14 15 14 13 11 11 11 15 17 20 18 18 18 17 14 14 12 11 12 13 13 12 10 9 8 5 2 5
3 2 4 7 9 12 16 5 8 6 2 5 5 10 11 9 8 9 16 13 12 11 14 13 13 10 10 10 11 14 17 18 17 16 17 13 7 9 9 8 11 12 11 10 8 7 5 1 3
4 1 7 9 12 10 11 9 8 7 9 7 6 5 10 9 7 12 14 13 12 13 12 13 12 11 11 10 11 9 9 9 9 9 11 8 8 7 9 9 10 10 10 9 8 6 4 3 2
6 8 9 15 15 12 10 12 8 9 7 8 7 6 6 3 6 8 10 18 17 16 12 13 13 12 12 9 8 5 5 5 6 9 9 7 8 6 4 5 4 4 6 3 4 3 2 4 3
6 8 9 9 11 12 9 8 11 5 6 9 9 5 5 7 8 8 9 15 18 18 17 16 14 13 11 9 9 8 7 6 7 8 9 5 7 6 6 5 6 5 4 5 4 3 4 5 6
5 7 15 16 15 12 14 9 8 15 9 9 16 8 5 5 7 5 8 14 16 18 20 20 18 14 11 12 9 9 9 8 8 8 9 6 6 8 8 6 6 5 5 5 5 5 4 4 5
9 14 14 12 13 10 11 11 10 19 10 12 10 15 9 7 9 4 8 5 14 16 17 19 20 19 13 11 13 10 9 9 8 8 10 7 7 8 8 8 7 6 6 5 6 5 5 5 5
12 12 15 12 9 12 12 14 18 13 16 19 16 13 15 7 8 9 8 8 14 16 19 21 21 20 19 13 12 10 9 10 8 9 10 10 9 11 7 8 8 7 7 7 6 6 4 4 2
8 6 5 2 9 11 10 21 18 18 14 19 20 16 14 17 11 9 8 9 7 13 19 9 13 19 20 14 12 10 10 9 7 9 10 11 8 14 10 9 8 8 7 6 6 5 5 5 4
4 6 11 12 8 10 5 12 10 12 15 17 18 17 13 11 11 13 10 8 10 8 19 21 20 22 21 18 14 10 12 9 10 9 10 13 9 13 11 10 9 9 8 7 7 4 6 4 4
9 14 15 15 13 19 15 13 14 12 13 10 10 8 9 9 10 9 10 12 11 9 18 27 21 23 21 15 13 9 10 9 11 10 11 14 9 12 8 7 10 7 7 7 5 6 3 4 5
8 11 13 16 15 13 18 12 18 14 14 10 9 9 9 8 8 7 5 7 17 15 9 21 22 22 17 12 11 13 11 11 10 10 15 14 12 9 11 6 9 7 7 9 8 4 6 4 4
9 12 15 14 15 16 17 19 18 16 11 9 10 11 10 8 11 13 11 8 6 13 6 18 21 22 19 16 15 13 15 11 10 11 11 15 16 12 11 9 8 10 7 9 9 7 4 4 5
11 11 13 18 19 14 10 13 15 19 19 19 17 16 15 14 10 18 18 13 9 7 9 14 22 22 22 21 15 9 11 6 10 10 10 14 18 16 14 14 8 11 9 10 11 9 10 9 4
12 9 14 15 15 8 13 15 16 13 13 16 17 16 18 19 15 11 22 18 15 10 6 2 14 23 23 23 18 22 17 15 11 12 11 13 19 19 18 15 13 10 10 9 11 10 8 7 10
8 14 7 10 14 9 15 7 16 8 9 19 22 17 15 15 17 19 20 25 18 17 15 4 2 15 20 24 22 20 19 14 13 12 15 14 16 19 19 16 16 9 10 11 13 12 12 6 9
13 15 13 10 4 5 7 5 6 6 9 17 20 19 15 11 14 15 17 21 21 17 17 16 9 8 19 21 25 25 25 20 16 16 14 12 13 14 18 19 17 17 11 12 11 14 16 13 8
14 11 5 5 5 3 6 8 2 12 13 16 16 22 19 14 14 14 18 20 20 20 19 18 14 14 14 23 23 25 25 24 23 20 16 17 12 14 19 21 18 15 14 13 12 13 15 15 13
12 5 1 5 3 10 14 7 3 4 2 7 10 12 17 16 15 16 18 18 20 21 18 19 19 14 15 22 25 24 25 19 18 19 16 15 15 16 19 18 18 19 18 13 14 12 12 15 14
8 5 8 5 4 6 5 6 5 9 7 8 9 12 10 12 17 19 19 18 19 21 21 20 18 14 13 17 24 25 25 25 23 23 19 16 18 15 18 21 19 19 17 18 16 13 15 15 16
10 12 4 5 4 5 6 2 3 13 17 17 15 16 16 18 20 20 19 20 18 19 21 18 17 16 16 21 12 18 23 25 23 21 21 20 19 20 18 19 20 18 19 18 17 16 15 15 13
15 5 6 2 3 4 7 5 3 16 17 13 12 16 15 14 14 16 18 18 18 19 21 20 20 20 17 16 15 6 24 21 20 18 22 17 19 21 20 19 19 20 20 20 19 19 18 17 17
13 5 3 3 7 2 5 8 8 20 23 13 13 14 13 10 13 15 17 19 19 21 21 20 19 18 17 15 19 14 11 20 16 18 19 21 19 19 21 19 21 19 21 20 21 22 19 19 19
Wind_Direction
326 313 153 345 45 81 268 269 245 346 25 33 75 71 337 50 89 137 85 118 127 136 142 142 135 134 130 129 128 125 121 114 111 108 107 105 106 105 105 107 106 105 102 101 99 99 101 99 88
311 312 93 270 102 272 263 308 68 61 105 32 65 26 48 34 67 110 87 130 134 136 141 146 137 137 133 134 132 130 126 120 116 114 111 110 109 108 110 108 108 108 106 105 102 103 105 98 97
298 204 51 154 198 205 238 31 31 84 51 31 33 58 47 81 45 78 122 129 128 127 138 145 139 138 137 136 135 133 129 124 121 119 115 115 113 111 112 112 112 110 109 107 107 108 102 97 88
319 341 334 104 262 270 259 284 297 46 19 46 14 35 69 112 104 117 126 127 121 126 128 143 140 138 141 138 137 135 132 128 127 123 121 121 118 119 117 115 114 113 109 109 110 109 105 88 86
220 277 239 244 260 278 274 265 225 102 64 45 70 47 78 89 108 132 136 131 126 112 123 139 137 138 141 142 140 138 136 133 131 127 125 124 125 125 121 117 111 110 107 105 104 97 94 82 55
329 133 336 262 271 274 295 358 40 55 91 327 8 139 71 99 107 131 137 134 122 123 131 137 133 140 144 146 143 140 139 138 135 132 130 128 128 128 125 119 115 112 107 101 99 99 104 103 70
191 36 251 280 288 299 309 348 38 4 25 320 320 102 91 39 93 113 131 117 123 125 127 143 156 144 141 147 146 144 142 143 140 138 134 133 131 130 130 127 123 117 111 105 96 88 69 43 9
231 158 290 280 287 289 305 329 332 6 285 280 356 184 135 134 85 101 104 115 117 126 132 145 155 158 154 151 146 148 145 144 144 142 137 139 137 134 132 132 132 128 121 113 107 95 78 3 324
307 325 270 264 274 283 301 337 321 341 6 333 340 115 147 143 129 109 112 115 116 128 138 141 154 150 154 150 151 149 149 146 145 145 139 135 143 138 140 140 141 137 135 133 129 122 123 201 292
166 192 241 255 276 290 314 352 332 10 348 326 20 58 142 149 153 141 140 140 141 145 149 147 149 153 155 161 154 150 157 153 152 151 152 147 147 147 154 148 146 142 143 145 141 144 169 229 264
242 234 251 274 283 295 304 323 327 350 324 295 308 84 341 148 153 146 161 151 157 155 156 154 156 157 159 160 161 155 154 157 153 153 161 154 154 157 131 141 142 138 147 151 146 162 212 229 255
343 287 248 258 289 313 306 316 322 296 261 287 297 335 54 309 165 175 172 168 151 161 161 158 160 159 169 148 169 164 161 167 163 168 170 157 160 148 147 153 159 157 163 176 188 196 218 231 248
309 334 326 318 319 314 327 334 309 293 310 305 307 318 323 317 304 263 194 179 164 164 167 164 160 165 170 156 170 169 172 169 169 166 183 162 167 157 152 160 164 171 168 175 192 204 214 230 247
322 326 318 313 309 309 312 310 329 287 319 317 306 298 290 265 269 273 287 179 177 168 172 168 166 163 168 167 173 171 172 170 166 172 189 180 164 161 165 164 172 177 179 184 183 193 207 220 218
313 307 300 286 299 295 315 289 265 281 288 280 277 277 290 279 283 259 231 259 181 174 176 176 171 169 166 168 172 168 175 174 174 175 188 192 176 171 158 170 174 183 188 188 186 193 185 206 209
299 286 314 325 247 251 200 260 258 255 255 252 250 249 257 281 263 267 269 249 218 188 176 151 179 179 174 156 177 174 176 175 173 178 186 194 189 179 162 174 182 181 182 194 184 176 179 187 176
286 280 299 304 314 341 34 290 316 289 268 263 258 234 229 241 273 265 257 246 255 191 168 158 202 183 181 169 170 174 174 177 182 178 184 196 187 185 177 175 187 178 183 187 190 178 157 165 191
323 325 321 317 325 322 318 302 311 310 321 310 314 317 265 228 249 263 265 250 242 245 177 180 182 184 179 170 165 174 177 181 185 182 185 188 193 183 182 174 188 169 174 174 169 162 173 162 186
318 312 307 307 312 313 309 307 309 308 306 310 304 307 305 297 280 297 293 292 265 241 181 189 182 180 171 174 168 181 182 187 189 185 183 184 192 180 190 178 184 177 168 177 166 161 175 215 149
318 312 304 308 316 327 323 313 303 304 300 299 301 304 302 303 311 303 296 291 300 294 210 188 191 179 181 179 183 183 184 189 184 189 178 184 188 183 187 192 186 189 164 173 173 154 167 206 175
321 306 321 328 332 312 309 306 311 318 317 311 303 281 278 270 273 294 294 296 293 290 294 204 190 184 184 186 183 182 183 147 190 186 181 188 185 188 189 196 183 191 179 183 184 175 172 200 195
302 325 313 338 344 309 325 299 293 294 300 333 329 341 334 320 330 327 304 302 293 286 287 115 229 190 188 184 184 186 182 188 191 196 193 184 188 193 192 192 195 190 193 181 187 184 186 164 208
311 339 338 299 288 310 298 295 278 313 9 355 351 5 13 10 12 6 351 339 342 3 332 285 203 222 200 188 187 185 191 192 191 192 193 188 192 193 193 189 195 188 199 187 183 184 187 192 203
326 346 319 292 237 260 328 360 320 27 355 350 353 349 7 20 12 4 354 344 341 352 345 340 310 224 213 204 192 191 193 189 193 194 194 192 190 193 193 195 196 198 196 194 187 188 196 196 204
359 342 337 336 1 236 13 302 37 8 10 352 357 339 1 7 7 1 359 346 335 340 337 329 335 323 240 210 203 199 195 194 197 195 191 196 188 194 198 194 195 199 194 198 192 190 197 201 199
321 333 183 296 308 296 307 263 72 230 184 40 335 1 355 349 355 359 357 346 336 333 334 322 314 318 315 222 215 207 197 196 202 194 192 200 197 197 198 196 195 199 198 193 198 197 199 201 207
313 9 297 262 276 276 237 77 100 312 21 11 6 20 350 1 354 357 352 348 337 333 334 320 304 325 322 309 221 211 203 200 199 200 194 196 198 196 192 197 198 198 198 196 196 204 204 200 206
338 313 5 352 333 304 301 305 182 18 8 5 12 8 6 3 359 360 350 348 341 339 334 346 351 355 354 346 271 255 207 207 203 200 199 201 197 196 189 193 197 200 202 199 195 205 205 206 207
322 34 346 305 3 309 344 280 235 3 355 360 16 354 359 3 2 356 347 348 343 346 345 350 347 347 353 351 320 228 290 217 211 205 204 198 191 195 194 192 194 201 202 202 202 204 205 206 209
61 9 7 94 312 266 248 259 276 341 336 348 8 355 354 351 360 351 346 352 348 356 346 343 347 345 348 352 340 217 299 256 215 216 210 207 190 190 196 196 203 203 207 204 204 206 204 207 208